Probability
0 0 0 0 0 0 0 0 0 0 0 0 0 0 0 0 0 0 0 0 0 0 0 0 0 0 0 0 0 0 0 0 0 0 0 0 0 0 0 0 0 0 0 0
0 0 0 0 0 0 0 0 0 0 0 0 0 0 0 0 0 0 0 0 0 0 0 0 0 0 0 0 0 0 0 0 0 0 0 0 0 0 0 0 0 0 0 0
0 0 0 0 0 0 0 0 0 0 0 0 0 0 0 0 0 0 0 0 0 0 0 0 0 0 0 0 0 0 0 0 0 0 0 0 0 0 0 0 0 0 0 0
0 0 0 0 0 0 0 0 0 0 0 0 0 0 0 0 0 0 0 0 0 0 0 0 0 0 0 0 0 0 0 0 0 0 0 0 0 0 0 0 0 0 0 0
0 0 0 0 0 0 0 0 0 0 0 0 0 0 0 0 0 0 0 0 0 0 0 0 0 0 0 0 0 0 0 0 0 0 0 0 0 0 0 0 0 0 0 0
0 0 0 0 0 0 0 0 0 0 0 0 0 0 0 0 0 0 0 0 0 0 0 0 0 0 0 0 0 0 0 0 0 0 0 0 0 0 0 0 0 0 0 0
0 0 0 0 0 0 0 0 0 0 0 0 0 0 0 0 0 0 0 0 0 0 0 0 0 0 0 0 0 0 0 0 0 0 0 0 0 0 0 0 0 0 0 0
0 0 0 0 0 0 0 0 0 0 0 0 0 0 0 0 0 0 0 0 0 0 0 0 0 0 0 0 0 0 0 0 0 0 0 0 0 0 0 0 0 0 0 0
0 0 0 0 0 0 0 0 0 0 0 0 0 0 0 0 0 0 0 0 0 0 0 0 0 0 0 0 0 0 0 0 0 0 0 0 0 0 0 0 0 0 0 0
0 0 0 0 0 0 0 0 0 0 0 0 0 0 0 0 0 0 0 0 0 0 0 0 0 0 0 0 0 0 0 0 0 0 0 0 0 0 0 0 0 0 0 0
0 0 0 0 0 0 0 0 0 0 0 0 0 0 0 0 0 0 0 0 0 0 0 0 0 0 0 0 0 0 0 0 0 0 0 0 0 0 0 0 0 0 0 0
0 0 0 0 0 0 0 0 0 0 0 0 0 0 0 0 0 0 0 0 0 0 0 0 0 0 0 0 0 0 0 0 0 0 0 0 0 0 0 0 0 0 0 0
0 0 0 0 0 0 0 0 0 0 0 0 0 0 0 0 0 0 0 0 0 0 0 0 0 0 0 0 0 0 0 0 0 0 0 0 0 0 0 0 0 0 0 0
0 0 0 0 0 0 0 0 0 0 0 0 0 0 0 0 0 0 0 0 0 0 0 0 0 0 0 0 0 0 0 0 0 0 0 0 0 0 0 0 0 0 0 0
0 0 0 0 0 0 0 0 0 0 0 0 0 0 0 0 0 0 0 0 0 0 0 0 0 0 0 0 0 0 0 0 0 0 0 0 0 0 0 0 0 0 0 0
0 0 0 0 0 0 0 0 0 0 0 0 0 0 0 0 0 0 0 0 0 0 0 0 0 0 0 0 0 0 0 0 0 0 0 0 0 0 0 0 0 0 0 0
0 0 0 0 0 0 0 0 0 0 0 0 0 0 0 0 0 0 0 0 0 0 0 0 0 0 0 0 0 0 0 0 0 0 0 0 0 0 0 0 0 0 0 0
0 0 0 0 0 0 0 0 0 0 0 0 0 0 0 0 0 0 0 0 0 0 0 0 0 0 0 0 0 0 0 0 0 0 0 0 0 0 0 0 0 0 0 0
0 0 0 0 0 0 0 0 0 0 0 0 0 0 0 0 0 0 0 0 0 0 0 0 0 0 0 0 0 0 0 0 0 0 0 0 0 0 0 0 0 0 0 0
0 0 0 0 0 0 0 0 0 0 0 0 0 0 0 0 0 0 0 0 0 0 0 0 0 0 0 0 0 0 0 0 0 0 0 0 0 0 0 0 0 0 0 0
0 0 0 0 0 0 0 0 0 0 0 0 0 0 0 0 0 0 0 0 0 0 0 0 0 0 0 0 0 0 0 0 0 0 0 0 0 0 0 0 0 0 0 0
0 0 0 0 0 0 0 0 0 0 0 0 0 0 0 0 0 0 0 0 0 0 0 0 0 0 0 0 0 0 0 0 0 0 0 0 0 0 0 0 0 0 0 0
0 0 0 0 0 0 0 0 0 0 0 0 0 0 0 0 0 0 0 0 0 0 0 0 0 0 0 0 0 0 0 0 0 0 0 0 0 0 0 0 0 0 0 0
0 0 0 0 0 0 0 0 0 0 0 0 0 0 0 0 0 0 0 0 0 0 0 0 0 0 0 0 0 0 0 0 0 0 0 0 0 0 0 0 0 0 0 0
0 0 0 0 0 0 0 0 0 0 0 0 0 0 0 0 0 0 0 0 0 0 0 0 0 0 0 0 0 0 0 0 0 0 0 0 0 0 0 0 0 0 0 0
0 0 0 0 0 0 0 0 0 0 0 0 0 0 0 0 0 0 0 0 0 0 0 0 0 0 0 0 0 0 0 0 0 0 0 0 0 0 0 0 0 0 0 0
0 0 0 0 0 0 0 0 0 0 0 0 0 0 0 0 0 0 0 0 0 0 0 0 0 0 0 0 0 0 0 0 0 0 0 0 0 0 0 0 0 0 0 0
Height
5631 5629 5626 5624 5621 5617 5613 5610 5606 5603 5598 5594 5587 5581 5575 5570 5564 5559 5553 5547 5541 5535 5528 5522 5515 5509 5503 5497 5493 5488 5483 5479 5475 5472 5469 5467 5467 5466 5466 5467 5469 5471 5475 5480
5622 5619 5616 5614 5612 5609 5605 5601 5596 5592 5589 5585 5578 5573 5567 5561 5556 5550 5544 5539 5532 5526 5519 5513 5507 5500 5495 5489 5484 5480 5476 5472 5468 5464 5462 5461 5460 5460 5460 5461 5462 5465 5469 5474
5610 5609 5605 5605 5605 5600 5596 5593 5588 5583 5580 5575 5570 5564 5558 5553 5547 5541 5535 5529 5523 5516 5510 5504 5498 5492 5486 5481 5477 5472 5468 5464 5460 5457 5455 5454 5454 5454 5455 5455 5457 5459 5463 5467
5598 5598 5595 5599 5595 5591 5587 5584 5579 5574 5570 5565 5559 5555 5550 5543 5537 5532 5526 5520 5514 5508 5502 5496 5490 5484 5478 5473 5468 5464 5460 5456 5453 5450 5449 5449 5449 5449 5449 5450 5452 5454 5458 5463
5587 5584 5584 5587 5585 5580 5576 5574 5570 5565 5560 5555 5550 5546 5542 5535 5528 5522 5516 5510 5504 5499 5493 5487 5481 5476 5470 5466 5461 5457 5453 5450 5447 5445 5443 5443 5443 5444 5444 5445 5447 5450 5454 5458
5576 5573 5573 5577 5574 5569 5565 5563 5561 5555 5550 5545 5540 5535 5532 5525 5519 5513 5507 5501 5495 5490 5484 5478 5473 5467 5463 5458 5454 5450 5447 5445 5443 5441 5439 5438 5438 5438 5439 5441 5443 5446 5450 5454
5566 5562 5562 5565 5562 5558 5555 5553 5549 5544 5539 5534 5529 5525 5520 5514 5508 5503 5497 5492 5486 5481 5475 5469 5464 5460 5455 5451 5447 5444 5441 5439 5437 5435 5434 5434 5433 5434 5435 5437 5439 5442 5445 5450
5555 5552 5555 5553 5549 5547 5544 5540 5536 5532 5528 5524 5519 5514 5509 5504 5498 5493 5488 5483 5477 5472 5467 5461 5456 5452 5447 5443 5440 5437 5435 5433 5431 5430 5429 5428 5428 5429 5430 5432 5435 5438 5441 5445
5545 5545 5543 5540 5537 5534 5531 5528 5525 5521 5518 5513 5509 5504 5500 5495 5489 5484 5479 5474 5468 5463 5459 5454 5448 5443 5439 5436 5433 5430 5428 5426 5425 5423 5423 5422 5423 5424 5425 5427 5430 5433 5437 5441
5532 5533 5531 5527 5524 5522 5519 5516 5513 5510 5507 5502 5498 5494 5490 5485 5480 5475 5470 5465 5460 5455 5450 5446 5440 5435 5431 5427 5425 5422 5421 5419 5418 5416 5416 5416 5417 5419 5421 5423 5425 5429 5432 5437
5519 5521 5518 5516 5513 5511 5508 5505 5502 5499 5495 5491 5488 5484 5479 5475 5470 5465 5461 5456 5451 5446 5441 5437 5432 5427 5423 5420 5417 5415 5413 5412 5411 5410 5409 5410 5412 5413 5416 5418 5421 5424 5429 5433
5508 5508 5504 5504 5502 5499 5497 5495 5492 5489 5485 5481 5477 5473 5469 5465 5460 5456 5451 5446 5442 5437 5432 5428 5423 5419 5416 5412 5409 5407 5406 5404 5404 5403 5403 5404 5406 5409 5411 5414 5417 5420 5424 5429
5495 5494 5491 5491 5490 5488 5485 5483 5481 5477 5474 5471 5467 5462 5459 5455 5450 5446 5441 5437 5432 5428 5423 5419 5415 5411 5408 5405 5402 5400 5398 5398 5397 5398 5399 5400 5402 5405 5408 5411 5413 5417 5421 5426
5481 5480 5480 5480 5478 5476 5474 5472 5469 5466 5463 5460 5456 5452 5448 5445 5440 5436 5432 5427 5423 5419 5415 5411 5407 5404 5400 5398 5396 5394 5393 5392 5392 5393 5394 5396 5399 5401 5404 5407 5411 5414 5418 5422
5469 5468 5468 5467 5466 5464 5462 5460 5458 5455 5452 5449 5446 5442 5438 5435 5431 5427 5423 5419 5415 5411 5407 5403 5400 5397 5394 5391 5389 5388 5387 5387 5388 5389 5391 5393 5395 5398 5401 5405 5408 5411 5415 5419
5457 5456 5456 5455 5454 5453 5451 5449 5447 5445 5442 5439 5436 5432 5429 5425 5422 5418 5415 5411 5407 5403 5399 5396 5392 5389 5387 5385 5384 5383 5383 5383 5384 5385 5387 5390 5392 5395 5398 5402 5405 5408 5412 5416
5445 5445 5445 5444 5443 5442 5441 5439 5437 5434 5432 5429 5426 5423 5420 5416 5413 5410 5406 5403 5399 5395 5392 5388 5385 5382 5381 5379 5378 5378 5378 5379 5380 5382 5384 5386 5389 5392 5395 5398 5402 5405 5408 5412
5434 5435 5434 5434 5433 5432 5431 5429 5426 5424 5422 5419 5416 5414 5411 5408 5405 5402 5399 5395 5391 5388 5384 5381 5378 5376 5375 5374 5373 5373 5374 5375 5377 5379 5381 5383 5386 5389 5392 5395 5398 5402 5405 5409
5425 5425 5425 5424 5423 5422 5420 5419 5417 5415 5412 5410 5407 5405 5402 5400 5397 5394 5390 5387 5384 5381 5378 5374 5372 5371 5370 5369 5369 5369 5370 5372 5373 5375 5377 5380 5382 5385 5388 5391 5395 5398 5402 5406
5416 5416 5416 5415 5414 5413 5411 5410 5408 5406 5403 5401 5399 5396 5394 5391 5389 5386 5383 5379 5376 5373 5371 5369 5367 5366 5365 5364 5364 5365 5366 5367 5369 5371 5373 5375 5378 5381 5384 5387 5391 5394 5398 5403
5408 5408 5407 5406 5405 5404 5402 5401 5399 5397 5395 5393 5391 5389 5386 5384 5381 5378 5375 5372 5369 5366 5365 5363 5362 5361 5360 5360 5360 5361 5362 5363 5365 5367 5369 5371 5374 5376 5380 5383 5387 5391 5395 5399
5400 5400 5399 5398 5397 5396 5394 5393 5391 5389 5387 5385 5383 5380 5378 5376 5373 5370 5367 5365 5363 5360 5359 5358 5357 5356 5356 5356 5356 5357 5358 5359 5361 5363 5366 5368 5370 5373 5376 5380 5383 5388 5392 5397
5393 5392 5391 5390 5389 5388 5386 5384 5383 5381 5378 5376 5374 5372 5370 5367 5364 5362 5360 5358 5356 5354 5353 5352 5351 5351 5351 5352 5352 5353 5355 5356 5358 5360 5362 5365 5367 5370 5373 5377 5380 5384 5389 5394
5385 5384 5383 5382 5381 5380 5378 5376 5374 5372 5370 5368 5366 5364 5361 5359 5356 5354 5352 5350 5349 5348 5347 5347 5346 5346 5347 5348 5349 5350 5351 5353 5355 5357 5359 5362 5364 5367 5370 5374 5377 5381 5386 5391
5377 5376 5375 5374 5373 5372 5370 5368 5366 5364 5361 5359 5357 5355 5352 5350 5349 5347 5345 5343 5342 5341 5341 5341 5341 5342 5343 5344 5345 5347 5348 5350 5352 5354 5356 5359 5362 5365 5368 5371 5375 5379 5383 5388
5369 5368 5367 5366 5365 5363 5361 5359 5357 5355 5353 5351 5348 5346 5344 5342 5341 5339 5338 5336 5336 5335 5335 5336 5337 5338 5339 5340 5342 5343 5345 5347 5349 5351 5354 5357 5360 5363 5366 5369 5373 5377 5382 5386
5361 5360 5359 5358 5356 5354 5353 5351 5349 5346 5344 5342 5340 5338 5336 5335 5333 5332 5331 5330 5330 5330 5330 5331 5332 5334 5335 5337 5339 5340 5342 5344 5347 5349 5352 5355 5358 5361 5364 5368 5372 5376 5380 5385
Wind_Speed
34 35 35 35 35 36 37 38 38 38 38 39 40 41 41 41 41 41 41 42 43 43 43 42 41 39 38 37 33 32 31 31 31 30 30 30 30 30 30 31 32 33 34 36
35 35 36 36 36 37 38 38 38 39 39 40 41 42 41 41 41 42 42 42 42 43 42 42 40 38 37 36 33 31 31 31 30 29 28 28 28 28 30 31 30 31 32 33
37 37 38 38 36 37 37 38 39 40 40 41 42 41 42 42 43 43 43 42 42 43 42 41 41 38 37 36 33 32 32 30 29 28 27 25 25 26 27 29 29 29 30 33
39 38 39 38 37 37 38 38 40 40 41 43 43 42 43 44 44 43 43 43 43 43 41 41 40 38 36 35 33 32 31 29 27 26 24 23 24 25 26 26 27 28 29 29
39 40 40 38 38 38 39 39 40 42 43 44 43 42 43 43 43 43 43 43 43 42 42 41 39 37 35 34 33 31 28 26 25 24 23 22 22 22 23 25 25 27 28 29
40 42 41 39 38 39 41 41 41 43 44 45 44 44 43 43 42 42 42 43 43 42 41 40 38 37 36 33 31 29 27 25 24 23 22 21 21 21 22 23 25 26 28 29
41 42 42 40 40 41 42 43 44 45 45 45 45 45 44 44 43 43 43 42 42 41 40 39 38 37 35 31 28 27 26 26 25 24 22 21 21 21 21 22 24 25 26 28
41 43 42 42 42 43 43 44 45 45 45 45 45 44 44 44 43 42 42 41 41 40 39 38 37 36 33 30 28 27 26 25 24 24 24 23 22 21 21 21 22 24 25 27
43 43 43 43 44 44 45 44 45 45 45 45 45 44 44 43 43 42 41 40 39 39 39 37 36 35 32 31 29 27 26 25 24 23 24 23 22 22 21 21 23 24 25 26
44 44 44 44 44 44 44 44 45 45 45 45 44 44 44 43 42 41 40 39 39 39 39 37 36 34 32 31 28 26 25 24 23 22 22 21 21 20 20 20 21 22 24 26
44 43 44 43 43 43 44 44 44 45 45 45 44 44 44 43 42 41 40 39 39 39 38 36 34 32 31 29 27 25 24 23 22 20 20 20 20 20 19 19 19 21 23 26
44 44 45 44 43 43 44 43 44 45 45 44 44 43 42 42 41 39 39 38 38 38 36 34 33 31 30 28 27 25 23 22 21 19 19 18 18 19 19 18 18 20 23 25
45 45 45 44 43 43 44 44 44 44 44 43 42 42 42 41 40 38 37 36 36 35 34 33 31 30 29 27 25 23 21 20 18 17 17 17 17 19 20 20 20 21 22 24
44 45 44 43 43 43 43 43 43 43 43 42 41 40 40 39 37 36 35 34 34 33 32 30 29 29 27 24 22 20 18 16 15 15 15 16 17 18 19 20 20 21 23 24
43 44 43 42 42 42 42 42 42 41 40 39 38 37 37 36 34 33 32 32 31 31 30 29 28 27 26 23 21 19 17 15 14 13 14 15 17 18 19 21 21 21 23 23
41 41 41 40 40 39 39 39 38 37 36 36 35 35 35 34 32 31 31 30 29 29 29 28 26 25 24 21 18 16 15 14 13 13 14 15 17 18 19 20 21 21 22 24
37 37 37 37 36 36 35 35 35 34 34 34 33 33 32 31 31 30 29 29 29 28 28 26 24 23 21 19 16 14 13 13 13 13 14 15 17 18 20 20 20 21 22 24
33 32 32 32 32 31 32 32 33 33 32 32 31 30 30 30 30 30 29 28 28 27 25 23 22 20 18 16 14 12 12 12 13 13 14 15 17 18 20 20 20 21 23 24
28 28 28 29 29 29 29 30 30 30 30 30 30 29 29 29 29 29 28 28 26 24 23 21 19 17 15 14 13 12 12 12 13 14 15 17 18 19 20 20 21 21 23 25
25 25 25 26 26 27 28 29 29 29 29 29 27 27 28 28 29 28 27 26 25 23 20 18 16 15 14 13 13 12 12 12 14 15 16 17 17 18 19 20 21 21 23 25
24 24 25 25 26 27 27 27 27 27 27 27 26 26 26 27 28 28 26 24 23 21 18 16 15 14 14 13 13 12 12 13 14 15 16 16 16 17 18 19 20 21 22 24
23 24 24 25 25 25 26 26 26 26 26 26 26 26 27 27 28 27 25 23 21 19 17 16 14 14 13 13 13 13 13 13 14 15 16 16 16 16 17 19 20 21 23 25
23 24 24 24 24 25 25 26 26 26 26 27 27 27 28 28 27 25 24 23 21 19 17 15 14 13 12 12 13 13 13 14 15 16 16 16 16 17 18 19 20 21 23 25
23 23 24 24 24 25 25 26 27 27 27 27 28 28 28 27 26 24 23 21 20 18 16 14 14 13 12 12 13 14 14 15 15 16 16 16 17 17 18 19 19 21 22 24
23 24 24 25 25 25 26 27 27 28 28 29 29 28 27 25 24 22 21 20 18 16 15 14 13 13 12 12 13 14 15 15 16 16 16 17 17 18 18 18 19 21 22 23
23 24 24 24 25 26 27 28 28 28 29 29 27 26 25 24 22 20 19 18 16 15 14 13 13 12 12 12 13 14 15 15 16 16 16 17 18 18 18 19 20 21 23 23
23 23 24 25 26 26 27 27 28 27 27 26 25 24 23 22 21 19 17 15 14 13 12 12 12 12 12 12 12 13 15 16 16 16 16 17 17 18 19 19 21 22 23 24
Wind_Direction
282 285 288 291 293 294 297 299 301 304 307 309 309 309 310 310 311 312 313 314 314 314 313 313 311 309 304 301 298 296 294 291 288 284 280 273 264 258 253 249 245 241 236 232
280 283 286 289 292 295 296 299 300 302 306 307 307 307 308 308 309 311 313 313 314 314 313 312 312 310 305 301 297 295 293 291 288 286 283 274 264 254 249 246 243 239 234 230
280 283 285 288 293 294 295 298 299 302 305 305 306 306 308 309 310 311 312 313 313 314 313 312 312 310 305 301 298 294 291 289 287 284 279 271 261 254 248 245 243 238 231 227
280 282 284 290 292 293 294 296 299 301 303 304 304 306 308 309 310 310 311 312 312 313 313 312 311 309 305 301 298 297 293 288 286 283 278 271 264 256 247 243 242 234 229 224
280 282 285 289 292 293 294 295 299 301 302 303 304 305 308 309 309 309 310 311 312 312 312 311 310 308 304 300 297 296 293 289 285 281 276 271 264 256 248 244 238 233 228 224
279 282 285 290 291 292 293 295 298 299 301 302 304 306 308 308 308 308 309 310 312 312 311 310 307 306 304 299 297 293 291 288 284 281 277 270 265 256 248 242 235 231 226 224
278 281 285 289 291 292 294 296 297 299 301 303 305 306 308 309 308 308 309 310 311 311 311 310 307 306 304 300 297 292 289 285 283 281 277 269 263 254 245 237 233 229 227 224
278 281 286 289 290 291 292 294 296 299 301 303 304 306 307 308 308 308 308 309 310 311 311 310 308 307 305 300 295 292 288 283 282 278 273 268 259 252 243 235 232 228 226 221
277 281 285 287 288 290 291 293 295 298 300 302 303 305 306 307 308 308 308 308 309 310 310 308 308 307 304 299 294 290 287 283 280 276 268 262 254 250 244 237 231 226 221 216
277 280 282 284 287 288 290 292 294 297 299 300 302 303 305 307 307 307 308 308 309 308 308 307 307 305 303 298 293 289 285 281 277 272 265 258 252 247 239 232 226 221 218 215
275 278 279 282 285 287 289 291 293 296 298 299 301 302 305 306 306 306 307 307 307 307 307 306 305 304 302 298 291 286 281 278 274 268 262 254 246 239 235 228 224 219 215 212
275 278 280 282 284 286 288 290 292 294 297 298 300 302 303 305 304 305 305 306 306 307 306 305 305 304 302 299 291 283 278 273 268 263 258 249 238 230 227 224 218 213 210 208
274 276 279 282 284 286 288 289 291 293 295 297 298 300 302 303 303 303 304 304 305 306 306 304 304 303 301 298 291 284 278 271 262 255 247 239 230 224 221 220 215 210 208 206
273 276 278 280 282 284 286 288 289 292 294 296 296 298 301 302 302 302 303 304 304 304 304 304 302 301 299 296 291 281 272 263 256 245 238 232 223 219 219 218 213 209 206 206
272 275 278 280 282 283 285 287 289 291 293 295 296 298 300 301 300 300 303 304 304 304 304 302 300 299 298 294 287 276 264 256 246 238 232 225 220 217 216 215 213 210 207 205
272 274 277 279 281 283 285 287 289 290 292 294 295 297 299 299 299 300 302 304 305 305 304 301 299 296 296 292 284 272 260 248 237 232 228 223 219 217 215 214 214 211 207 204
273 275 277 279 281 283 284 286 288 290 292 293 294 296 297 298 298 300 302 303 303 303 303 302 298 295 293 288 279 265 251 241 234 227 219 216 215 216 216 214 215 212 206 203
274 275 276 279 280 281 283 285 288 289 291 293 294 295 296 297 298 299 301 301 303 303 302 300 297 291 287 281 271 259 246 237 231 225 219 216 217 218 217 215 214 211 207 204
271 273 276 278 280 281 284 286 288 290 290 292 293 294 295 297 298 299 299 300 301 301 299 296 292 285 280 274 265 253 241 234 226 222 221 221 221 220 217 213 210 208 206 203
272 274 277 280 282 284 286 287 289 290 291 293 293 294 296 298 300 300 299 299 298 297 294 290 284 279 274 268 258 247 236 230 226 224 223 223 221 218 215 211 209 208 207 204
273 276 279 281 283 285 287 288 289 291 292 293 293 294 296 298 300 300 298 296 295 294 291 285 279 272 266 261 253 243 233 226 223 222 221 218 215 212 210 207 206 205 203 201
275 277 279 282 285 286 288 290 292 294 294 294 295 295 297 299 301 300 296 294 292 289 286 280 274 268 264 255 246 238 230 223 218 217 217 213 209 208 207 205 203 202 200 199
277 279 281 284 286 287 289 291 293 294 294 294 295 296 297 299 300 298 293 291 289 285 279 273 268 264 259 251 241 232 225 219 215 213 211 210 208 206 205 203 202 199 199 199
277 280 283 285 286 289 290 291 293 295 294 295 296 297 297 298 298 296 293 289 286 280 272 267 263 260 252 243 233 224 220 216 212 209 208 207 205 202 201 201 200 197 197 197
278 281 284 286 288 289 291 292 293 294 294 295 296 297 297 296 296 294 290 286 282 274 266 260 255 250 243 235 227 221 216 212 209 206 203 201 199 197 197 198 197 195 193 192
279 282 285 287 288 290 291 293 294 295 295 295 295 295 295 294 292 291 287 282 277 270 260 251 244 238 232 228 223 215 209 204 201 200 199 196 195 193 192 193 192 191 190 188
281 284 287 289 290 291 293 294 295 296 295 295 294 294 292 291 289 287 284 278 269 260 250 241 232 225 221 218 214 208 204 201 198 197 194 192 192 190 188 189 189 187 185 185